Location: Endfield
(51.6667°N, 0.0667°W)
Time: 13:13:04
(UTC+00:00)

Okean-O - Pass Details

Date: 19 May 2024
Orbit: 633 x 635 km, 98.0° (Epoch: 18 June)

Event Time Altitude Azimuth Distance (km) Brightness Sun altitude
Exits shadow 20:46:05 -1° 180° (S) 3,004 5.7 -7.1°
Rises 20:46:17 0° 181° (S) 2,922 5.6 -7.1°
Reaches altitude 10° 20:48:33 10° 187° (S) 2,019 4.8 -7.4°
Maximum altitude 20:52:47 46° 261° (W) 865 3.6 -7.8°
Drops below altitude 10° 20:57:03 10° 335° (NNW) 2,034 6.6 -8.3°
Sets 20:59:20 0° 342° (NNW) 2,948 7.5 -8.5°
